www.pogodaiklimat.ru

Погода и климат >> Архив погоды >> Россия >> Кемеровская область >> Кондома


ПОГОДА в Кондоме

  • Прогноз погоды в Кондоме
  • Монитор погоды в Кондоме

АРХИВ ПОГОДЫ в Кондоме

Время (UTC), дата Ветер
(напр.,м/с)
 
Видим.   Явления Облачность Т
(С)
Тd
(С)
f
(%)
Тe
(С)
Тes
(С)
Комфортность P
(гПа)
Po
(гПа)
Тmin
(С)
Tmax
(С)
R
(мм)
R24
(мм)
S
(см)
18 14.05 штиль 0 20 км 8/3 600 м
[Cb cap Ci fib]
-0.6 -3.5 81 -2 -2 1010.4 966.7
21 14.05 штиль 0 20 км 6/3 1000 м
[Sc Ac As]
-1.4 -3.4 86 -3 -3 1007.7 964.0
00 15.05 штиль 0 50 км 10/10 600 м
[Cb cap]
-0.5 -2.3 88 -2 -2 1006.1 962.6 -1.9
03 15.05 СВ 3 50 км 10/3 1000 м
[Sc Ac und]
+5.1 -3.4 54 +2 +2 1009.5 966.7
06 15.05 СЗ 6
{13}
50 км 10/10 600 м
[Cb cap]
+4.9 -3.9 53 0 0 1012.3 969.3
09 15.05 СЗ 4 50 км 10/6 1000 м
[Sc diur, vesp Ac As Ci fib]
+5.0 -3.0 56 +1 +1 1013.7 970.7
12 15.05 СЗ 1
{11}
50 км 10/10 600 м
[Cb cap]
+3.6 -0.6 74 +2 +2 1016.4 973.0 +8.3
15 15.05 Ю 2 4000 м слаб. ливневой снег 10/10 600 м
[Cb cap]
+1.7 -0.2 87 -2 -2 1021.1 977.3
18 15.05 З 1 20 км {ливн. осадки} 10/10 600 м
[Cb cap]
+1.4 -0.1 90 -1 -1 1022.6 978.7
21 15.05 ЮЗ 2 20 км 10 баллов +0.8 -0.3 92 -3 -3 1022.7 978.7
00 16.05 ЮЗ 2 50 км 10/10 600 м
[Cb cap]
+1.2 -0.3 90 -2 -2 1022.5 978.5 +0.8 0.4
03 16.05 Ю 3 50 км 10/10 600 м
[Cb cap]
+3.1 -0.7 76 -1 -1 1023.7 980.0
06 16.05 СВ 2 50 км 8/8 600 м
[Cb cap]
+5.7 -1.2 61 +4 +8 1023.3 980.0
09 16.05 СЗ 3 50 км 10/10 600 м
[Cb cap]
+6.2 -2.4 54 +4 +4 1021.9 978.7
12 16.05 СВ 2 10 км слаб. ливневой дождь 10/10 600 м
[Cb cap]
+1.9 +0.6 91 -2 -2 1023.0 979.1 +8.0 1
15 16.05 штиль 0 20 км {ливн. осадки} 3/3 600 м
[Cb cap]
-0.3 -0.9 96 -2 -2 1024.3 980.0
18 16.05 Ю 1 20 км {ливн. осадки} ясно -1.7 -1.8 99 -4 -4 1024.5 980.0
21 16.05 штиль 0 20 км ясно -2.2 -2.6 97 -4 -4 1024.6 980.0
00 17.05 В 1 50 км 6/4 600 м
[Cb cap Ci fib]
-1.8 -2.1 98 -4 -3 1024.5 980.0 -2.3 0.3
03 17.05 СВ 1 50 км 8/8 600 м
[Cb cap]
+4.0 +3.6 97 +2 +6 1024.9 981.3
06 17.05 ЮЗ 2 10 км слаб. ливневой дождь 8/8 600 м
[Cb cap]
+5.2 +1.7 78 +3 +7 1024.7 981.3
09 17.05 З 3 50 км {ливн. осадки} 9/9 600 м
[Cb cap]
+9.6 -2.4 43 +8 +9 1024.1 981.3
12 17.05 ЮЗ 1
{11}
50 км {ливн. осадки} 6/0
[As op Ci fib]
+7.3 -1.3 54 +7 +9 1023.6 980.5 +9.8 0.4
15 17.05 штиль 0 20 км 3/0
[Ci fib]
+2.1 -0.8 81 +1 +1 1026.7 982.7
18 17.05 штиль 0 20 км ясно -1.8 -2.4 96 -3 -3 1027.4 982.7
21 17.05 штиль 0 20 км 1 балл -2.7 -3.1 97 -4 -4 1026.1 981.3
00 18.05 штиль 0 50 км 8/3 1000 м
[Sc Ci fib]
-1.3 -2.1 94 -3 -2 1024.5 980.1 -3.5
03 18.05 Ю 3 50 км 9 баллов +9.6 -2.7 42 +8 +9 1021.4 978.7
06 18.05 ЮЗ 4-10
{10}
50 км 9/0
[Ci fib]
+14.3 -7.8 21 +13 +22 1017.5 975.6
09 18.05 Ю 3 50 км 9 баллов +16.8 -7.7 18 +17 +18 1016.1 974.7
12 18.05 Ю 1 50 км 9/0
[Ac As Ci fib]
+17.1 -9.8 15 +18 +20 1012.8 971.6 +17.2
15 18.05 СВ 1 20 км 4/0
[Ac lent Ci fib]
+7.6 -0.6 56 +7 +7 1014.7 972.0
18 18.05 штиль 0 20 км 2 балла +3.5 0.0 78 +3 +3 1013.9 970.7
21 18.05 штиль 0 20 км 2 балла -0.7 -1.7 93 -2 -2 1014.6 970.7
00 19.05 штиль 0 50 км 8/0
[Ac trans Ci fib]
+3.2 -0.6 76 +2 +4 1012.0 968.8 -1.9
03 19.05 Ю 2 50 км 2 балла +18.7 -2.3 24 +19 +27 1008.8 968.0
06 19.05 ЮЗ 4-11
{11}
50 км 1/0
[Ci fib]
+24.2 -8.1 11 +22 +31 комфорт 1006.8 966.7
09 19.05 З 3 50 км 9 баллов +24.2 -7.0 12 +22 +23 комфорт 1006.8 966.7
12 19.05 З 2 50 км 6/6 1000 м
[Sc]
+23.4 -6.3 13 +21 +22 комфорт 1006.4 966.3 +26.1
15 19.05 штиль 0 20 км 4 балла +15.4 +1.5 39 +15 +15 1009.3 968.0
18 19.05 штиль 0 20 км 7 баллов +7.9 +3.0 71 +7 +7 1011.8 969.3
21 19.05 Ю 1 20 км 10 баллов +11.0 +9.4 90 +11 +11 1011.2 969.3
00 20.05 СВ 1 50 км {ливн. осадки} 10/10 600 м
[Cb cap]
+10.9 +10.0 94 +10 +10 1010.3 968.4 +7.8 3
03 20.05 СЗ 1 50 км 10 баллов +12.7 +11.3 91 +13 +13 1010.9 969.3
06 20.05 штиль 0 50 км 10 баллов +16.2 +11.4 73 +16 +16 1010.4 969.3
09 20.05 Ю 4 50 км 9 баллов +16.5 +10.1 66 +16 +17 1010.4 969.3
12 20.05 Ю 5 50 км 4/4 600 м
[Cb cap]
+19.5 +7.6 46 +20 +21 1007.8 967.2 +20.7 0.7
15 20.05 Ю 3 20 км 9 баллов +15.1 +7.9 62 +14 +14 1006.5 965.3
18 20.05 штиль 0 10 км слаб. ливневой дождь 10 баллов +11.7 +9.9 89 +11 +11 1006.9 965.3
21 20.05 штиль 0 20 км 10 баллов +11.3 +10.4 94 +11 +11 1004.3 962.7
00 21.05 Ю 3 50 км {ливн. осадки} 10/10 600 м
[Cb cap]
+13.7 +9.9 78 +13 +13 1000.4 959.3 +10.9 2
03 21.05 Ю 3
{16}
10 км слаб. ливневой дождь 10/10 600 м
[Cb cap]
+13.5 +11.9 90 +12 +12 1002.2 961.1
06 21.05 ЮЗ 2 50 км 10 баллов +14.2 +11.9 86 +14 +14 1003.8 962.7
09 21.05 З 1 10 км ливневой дождь 10 баллов +11.8 +8.8 82 +12 +12 1006.9 965.3
12 21.05 Ю 5 10 км слаб. ливневой дождь 10/10 600 м
[Cb cap]
+9.8 +8.2 90 +7 +7 1006.5 964.6 +15.2 16
15 21.05 ЮЗ 1 20 км 9 баллов +9.2 +7.8 91 +9 +9 1008.8 966.7

 

Местоположение метеостанции Кондома (Кемеровская область, Россия): широта 52.82 долгота 87.27 высота над уровнем моря 355 м.

В архиве по умолчанию представлена погода в Кондоме за последнюю неделю. Архивные данные за месяц целиком и за предыдущие месяцы, начиная с января 2011 года, Вы можете получить, выбрав интересующий диапазон дат из раскрывающегося списка и нажав кнопку "Ввод!".


*Определитесь, кто Вы:
робот инопланетянин человек

Внимание! Время в таблицах - всемирное. Для получения местного времени необходимо прибавить поправку, которая равна 7 ч.

Смотрите также архив погоды в соседних городах и на ближайших метеорологических станциях:

Погода в Таштаголе (Кемеровская область, Россия) (41 км)
Погода в Кузедеево (Кемеровская область, Россия) (57 км)
Погода в Турочаке (Алтай, Россия) (64 км)
Погода в Усть-Кабырзе (Кемеровская область, Россия) (79 км)
Погода в Чое (Алтай, Россия) (104 км)
Погода в Новокузнецке АМС (Кемеровская область, Россия) (106 км)
Погода в Междуреченске (Кемеровская область, Россия) (108 км)
Погода в Целинном (Алтайский край, Россия) (114 км)
Погода в Тогуле (Алтайский край, Россия) (115 км)
Погода в Яйлю (Алтай, Россия) (119 км)

Пояснения к столбцам:

Ветер - указаны скорость ветра в м/с - средняя за 10 мин, порывы в срок и между сроками (в фигурных скобках) и направление, откуда дует ветер: С - северный, СВ - северо-восточный, В - восточный, ЮВ - юго-восточный, Ю - южный, ЮЗ - юго-западный, З - западный, СЗ - северо-западный.
Видимость - горизонтальная дальность видимости в метрах или километрах. При видимости от 1 до 10 км при отсутствии осадков обычно наблюдается дымка, при ухудшении видимости до 1 км и менее - туман. В сухую погоду видимость может ухудшаться дымом, пылью или мглою.
Явления - указаны атмосферные явления, наблюдавшиеся в срок или в последний час перед сроком; фигурными скобками обозначены явления, наблюдавшиеся между сроками (за 1-3 часа до срока); квадратными скобками обозначены град или гололедные отложения с указанием их диаметра в мм.
Облачность - указаны через наклонную черту общая и нижняя облачность в баллах и высота нижней границы облаков в метрах; квадратными скобками обозначены формы облаков: Ci - перистые, Cs - перисто-слоистые, Cc - перисто-кучевые, Ac - высококучевые, As - высокослоистые, Sc - слоисто-кучевые, Ns - слоисто-дождевые, Cu - кучевые, Cb - кучево-дождевые. Подробнее классификацию облаков см. в Атласе облаков (PDF).
T - Температура воздуха - температура, измеренная на высоте 2 м над землей.
Td - Температура точки росы - температура, при понижении до которой содержащийся в воздухе водяной пар достигнет насыщения.
f - Относительная влажность воздуха - влажноcть воздуха, измеренная на высоте 2 м над землей.
Te - Эффективная температура - температура, которую ощущает одетый по сезону человек в тени. Характеристика душности погоды. При расчете учитывается влияние влажности воздуха и скорости ветра на теплоощущения человека.
Tes - Эффективная температура на солнце - температура, которую ощущает человек, с поправкой на солнечный нагрев. Характеристика знойности погоды. Зависит от высоты солнца над горизонтом, облачности и скорости ветра. Ночью, в пасмурную погоду, а также при ветре 12 м/с и более поправка равна нулю.
P - Атмосферное давление - приведенное к уровню моря атмосферное давление.
Po - Атмосферное давление - измеренное на уровне метеостанции атмосферное давление.
Tmin - Минимальная температура - минимум температуры воздуха на высоте 2 м над землей.
Tmax - Максимальная температура - максимум температуры воздуха на высоте 2 м над землей.
R - Количество осадков - Количество выпавших осадков за период времени, мм. При наведении курсора мыши на число - период времени, за который выпало указанное количество осадков.
R24 - Количество осадков - Количество выпавших осадков за 24 часа, мм.
S - Снежный покров - Высота снежного покрова, см. При наведении курсора мыши на число - состояние снежного покрова и степень покрытия местности в баллах.